Zurück zum Katalog

DELTA 1 DEB *

AktivLEO
NORAD 6213·DEBRIS·🇺🇸 United States

Gestartet Oct 2, 1966 von Vandenberg Space Force Base

Loading…

Nächste Überflüge (nächste 24 Stunden)

TLE

AktuellSource: Space-Track

Epoche: Sep 14, 2026, 07:42 UTC

1 06213U 66087E   26257.32086900  .00001867  00000-0  43431-2 0  9998
2 06213 101.7708 290.6429 0044685  43.0158  22.2310 13.26023856808167

Verfolge DELTA 1 DEB * in Echtzeit mit AllMySat

Download on the App Store